User: anonymous   Login
Location: Maiden_LMO
(35.5760°N, 81.2120°W)
Time: 12:18:43
(UTC-04:00)
Language:

ADEOS II - Orbit

View from above orbital plane
View from above orbital plane
View from above satellite
View from above satellite

Ground track
Ground track

The orbit data is extracted from the following two-line orbital elements,

1 27597U 02056A   17080.91340579 +.00000066 +00000-0 +43812-4 0  9991
2 27597 098.3598 054.2268 0000766 138.2919 221.8321 14.27274242742976
Epoch (UTC): 21 March 2017 21:55:18
Eccentricity: 0.0000766
inclination: 98.3598°
perigee height: 800 km
apogee height: 801 km
right ascension of ascending node: 54.2268°
argument of perigee: 138.2919°
revolutions per day: 14.27274242
mean anomaly at epoch: 221.8321°
orbit number at epoch: 74297

The dashed part of the orbit path shows where the satellite is in the earth's shadow,  

DLR